{"data":{"norad_id":52363,"intl_designator":"2022-045AJ","name":"STARLINK-3830","alt_names":[],"object_type":"PAYLOAD","status":"ACTIVE","operator":null,"country":"US","launch_date":"2022-04-29","launch_site_code":"AFETR","launch_vehicle":null,"mission":null,"orbit_class":"UNKNOWN","rcs_meters":null,"size_class":null,"mass_kg":null,"dimensions":null,"purposes":["comms"],"wikipedia_slug":null,"has_3d_model":false,"image_url":null,"decayed_at":null,"tle_current":{"epoch":"2026-05-25T04:10:44.711904Z","epoch_age_seconds":63978,"freshness":"FRESH","line1":"1 52363U 22045AJ  26145.17412861  .00001234  00000+0  95625-4 0  9990","line2":"2 52363  53.2121 215.7714 0000982  86.3446 273.7658 15.08838477227338","mean_motion":15.08838477,"eccentricity":9.82e-5,"inclination_deg":53.2121,"raan_deg":215.7714,"arg_perigee_deg":86.3446,"mean_anomaly_deg":273.7658,"bstar":9.5625e-5,"rev_number":22733,"period_min":95.43765101107,"perigee_km":539.0687078584,"apogee_km":540.42738048107,"semimajor_km":6917.8850441697,"source":"CELESTRAK","updated_at":"2026-05-25T13:38:17.118949Z"}}}